Location: Jaworzyna Śląska
(50.9128°N, 16.4318°E)
Time: 12:31:24
(UTC+01:00)

ISS - Visible Passes

Search period start: 24 January 2019 00:00
Search period end: 03 February 2019 00:00
Orbit: 404 x 410 km, 51.6° (Epoch: 24 January)

Date Brightness Start Highest point End Pass type
(mag) Time Alt. Az. Time Alt. Az. Time Alt. Az.
24 Jan -1.7 17:49:13 10° S 17:51:08 15° SE 17:52:04 13° ESE visible
24 Jan -1.1 19:23:55 10° WSW 19:24:47 17° SW 19:24:47 17° SW visible
25 Jan -3.0 18:32:45 10° SW 18:35:41 39° SSE 18:35:41 39° SSE visible
26 Jan -2.4 17:41:47 10° SSW 17:44:37 27° SSE 17:46:30 16° E visible
26 Jan -1.7 19:17:34 10° WSW 19:19:14 27° WSW 19:19:14 27° WSW visible
27 Jan -3.8 18:26:14 10° WSW 18:29:31 65° SSE 18:30:00 55° ESE visible
28 Jan -3.2 17:34:58 10° SW 17:38:10 46° SSE 17:40:43 15° E visible
28 Jan -2.3 19:11:19 10° W 19:13:26 36° W 19:13:26 36° W visible
29 Jan -3.9 18:19:52 10° WSW 18:23:11 89° NNW 18:24:07 44° ENE visible
29 Jan -0.4 19:56:29 10° W 19:56:50 12° W 19:56:50 12° W visible
30 Jan -3.7 17:28:28 10° WSW 17:31:45 74° SSE 17:34:47 12° ENE visible
30 Jan -2.8 19:05:01 10° W 19:07:30 46° WNW 19:07:30 46° WNW visible
31 Jan -3.8 18:13:33 10° W 18:16:52 77° N 18:18:09 34° ENE visible
31 Jan -0.7 19:50:09 10° WNW 19:50:52 15° W 19:50:52 15° W visible
01 Feb -3.8 17:22:04 10° W 17:25:23 84° N 17:28:42 10° E visible
01 Feb -3.4 18:58:41 10° W 19:01:32 63° WNW 19:01:32 63° WNW visible
02 Feb -3.9 18:07:12 10° W 18:10:31 79° N 18:12:12 26° E visible
02 Feb -1.0 19:43:47 10° W 19:44:55 19° W 19:44:55 19° W visible
